#timestamp,LO_Frequency,Hit,StdDev 
1500937215.9,286047042.3,N,609.3
1500937235.7,286047041.6,N,609.3
1500937255.6,286047042.1,N,609.4
1500937275.4,286047040.3,N,609.5
1500937295.3,286047041.5,N,609.5
1500937315.1,286047040.2,N,609.6
1500937316.0,286047040.2,N,609.6
1500937335.8,286047042.3,N,609.7
1500937355.7,286047041.0,N,609.8
1500937375.5,286047040.5,N,609.8
1500937395.3,286047040.2,N,609.9
1500937415.2,286047039.9,N,610.0
1500937435.0,286047040.1,N,610.0
1500937435.9,286047040.1,N,610.1
1500937455.8,286047040.2,N,610.1
1500937475.6,286047041.2,N,610.2
1500937495.4,286047042.3,N,610.3
1500937515.3,286047040.6,N,470.4
1500937535.1,286047040.4,N,470.5
1500937555.9,286047041.5,N,470.5
1500937575.7,286047042.8,N,470.6
1500937595.5,286047041.7,N,470.6
1500937615.4,286047042.1,N,470.6
1500937635.2,286047042.5,N,470.7
1500937655.1,286047041.9,N,470.7
1500937656.0,286047041.9,N,470.7
1500937675.8,286047042.6,N,470.8
1500937695.6,286047041.8,N,470.8
1500937715.5,286047042.0,N,470.8
1500937735.3,286047042.0,N,1.4
1500937755.1,286047040.5,Y,1.4
1500937775.9,286047002.7,N,4.4
1500937795.7,286047002.2,N,6.0
1500937815.6,286047000.0,N,7.4
1500937835.4,286047002.8,N,8.4
1500937855.2,286046998.1,N,9.5
1500937875.1,286046998.5,N,10.5
1500937876.0,286046998.5,N,11.3
1500937895.8,286046998.3,N,12.1
1500937915.7,286046998.6,N,12.8
1500937935.5,286047000.6,N,13.4
1500937955.3,286047001.2,N,13.9
1500937975.2,286047002.4,N,14.3
1500937995.0,286047000.1,N,14.8
1500937995.9,286047000.1,N,15.3
1500938015.8,286047002.7,N,15.7
1500938035.6,286047002.6,N,16.0
1500938055.4,286047002.7,N,16.3
1500938075.3,286047001.0,N,16.7
1500938095.1,286047002.3,N,17.0
1500938115.9,286046999.9,N,17.3
1500938135.7,286047001.7,N,17.6
1500938155.5,286047001.5,N,17.9
1500938175.4,286047002.5,N,18.1
1500938195.2,286047000.0,N,18.3
1500938215.0,286047000.2,N,18.6
1500938215.9,286047000.2,N,18.8
1500938235.8,286047000.5,N,19.0
1500938255.6,286047002.7,N,19.1
1500938275.5,286047002.2,N,19.3
1500938295.3,286047002.1,N,19.4
1500938315.1,286047001.3,N,19.6
1500938335.9,286047002.1,N,19.7
1500938355.7,286047001.5,N,19.8
1500938375.6,286047002.0,N,19.9
1500938395.4,286047002.3,N,20.0
1500938415.2,286047001.8,N,20.1
1500938435.1,286047001.4,N,20.1
1500938436.0,286047001.4,N,20.2
1500938455.8,286047001.6,N,20.2
1500938475.6,286047001.3,N,20.3
1500938495.5,286047001.8,N,20.3
1500938515.3,286047001.5,N,20.3
1500938535.2,286047002.0,N,20.3
1500938555.9,286047002.1,N,20.2
1500938575.7,286047002.6,N,20.2
1500938595.6,286047001.1,N,20.1
1500938615.4,286046998.7,N,20.1
1500938635.3,286047000.3,N,20.0
1500938655.1,286046998.4,N,19.8
1500938656.0,286046998.4,N,19.8
1500938675.8,286046998.8,N,19.7
1500938695.7,286046998.7,N,19.6
1500938715.5,286046998.5,N,19.5
1500938735.3,286046998.6,N,19.4
1500938755.2,286046998.6,N,19.3
1500938775.0,286046998.4,N,19.1
1500938775.9,286046998.4,N,19.0
1500938795.8,286046999.0,N,18.8
1500938815.6,286046998.3,N,18.6
1500938835.4,286046999.6,N,18.4
1500938855.3,286046996.5,N,18.2
1500938875.1,286046997.0,N,18.0
1500938895.9,286046997.5,N,17.8
1500938915.7,286046997.8,N,17.5
1500938935.5,286046997.5,N,17.3
1500938955.4,286046997.5,N,17.0
1500938975.2,286046997.9,N,16.7
1500938995.1,286046995.1,N,16.4
1500938996.0,286046995.1,N,16.0
1500939015.8,286046997.5,N,15.6
1500939035.6,286046995.2,N,15.2
1500939055.5,286046995.9,N,14.8
1500939075.3,286046995.2,N,14.3
1500939095.1,286046995.8,N,13.8
1500939115.9,286046996.1,N,13.2
1500939135.7,286046995.6,N,12.6
1500939155.6,286046996.1,N,11.8
1500939175.4,286046995.5,N,11.1
1500939195.2,286046996.0,N,10.2
1500939215.1,286046997.7,N,9.2
1500939216.0,286046997.7,N,8.1
1500939235.8,286046996.3,N,6.8
1500939255.7,286046995.2,N,5.0
1500939275.5,286046993.3,N,2.5
1500939295.3,286046993.3,N,2.5
1500939315.2,286046996.2,N,2.5
1500939335.0,286046993.8,N,2.6
1500939335.9,286046993.8,N,2.6
1500939355.7,286046994.5,N,2.7
1500939375.6,286046993.6,N,2.7
1500939395.4,286046994.1,N,2.8
1500939415.3,286046994.1,N,2.8
1500939435.1,286046994.3,N,2.9
1500939436.0,286046994.3,N,2.9
1500939455.8,286046991.7,N,3.0
1500939475.7,286046994.8,N,3.0
1500939495.5,286046994.8,N,3.0
1500939515.4,286046994.3,N,3.0
1500939535.2,286046992.1,N,3.1
1500939555.0,286046992.2,N,3.1
1500939555.9,286046992.2,N,3.1
1500939575.8,286046992.0,N,3.2
1500939595.6,286046994.8,N,3.2
1500939615.4,286046991.9,N,3.2
1500939635.3,286046991.8,N,3.2
1500939655.1,286046994.2,N,3.2
1500939705.9,286046993.0,Y,3.3
1500939715.8,286046994.0,N,3.2
1500939735.6,286046998.8,N,3.2
1500939755.5,286046998.7,N,3.2
1500939775.3,286046999.1,N,3.2
1500939795.2,286046998.4,N,3.2
1500939815.0,286046999.4,N,3.1
1500939815.9,286046999.4,N,3.1
1500939835.7,286046998.9,N,3.1
1500939855.6,286046999.1,N,3.0
1500939875.4,286046999.6,N,3.0
1500939895.3,286046996.5,N,3.0
1500939915.1,286046999.2,N,2.9
1500939916.0,286046999.2,N,2.9
1500939935.8,286046999.0,N,2.8
1500939955.7,286046998.9,N,2.8
1500939975.5,286046999.1,N,2.8
1500939995.4,286046998.9,N,2.7
1500940015.2,286046996.7,N,2.7
1500940035.0,286046996.6,N,2.6
1500940035.9,286046996.6,N,2.6
1500940055.8,286046999.5,N,2.5
1500940075.6,286046996.9,N,2.5
1500940095.4,286046999.6,N,2.4
1500940115.3,286046999.2,N,2.4
1500940135.1,286046998.3,N,2.4
1500940155.9,286047000.8,N,2.4
1500940175.7,286047000.3,N,2.4
1500940195.5,286047000.3,N,2.4
1500940215.4,286047000.2,N,2.4
1500940235.2,286047000.4,N,2.5
1500940255.1,286047002.5,N,2.5
1500940256.0,286047002.5,N,2.6
1500940275.8,286047000.1,N,2.6
1500940295.6,286047000.1,N,2.6
1500940315.5,286047000.2,N,2.7
1500940335.3,286046999.9,N,2.7
1500940355.1,286046999.9,N,2.7
1500940375.9,286047000.4,N,2.7
1500940395.7,286047000.0,N,2.7
1500940415.6,286047002.8,N,2.8
1500940435.4,286047002.4,N,2.9
1500940455.2,286047002.6,N,2.9
1500940475.1,286047001.9,N,3.0
1500940476.0,286047001.9,N,3.0
1500940495.8,286047004.3,N,3.1
1500940515.7,286047002.0,N,3.1
1500940535.5,286047002.0,N,3.2
1500940555.3,286047002.5,N,3.2
1500940575.2,286047001.9,N,3.2
1500940595.0,286047003.9,N,3.3
1500940595.9,286047003.9,N,3.4
1500940615.8,286047002.2,N,3.4
1500940635.6,286047003.7,N,3.4
1500940655.4,286047005.7,N,3.5
1500940675.3,286047003.2,N,3.6
1500940695.1,286047003.3,N,3.6
1500940715.9,286047003.5,N,3.6
1500940735.7,286047003.8,N,3.7
1500940755.5,286047005.9,N,3.8
1500940775.4,286047003.8,N,3.8
1500940795.2,286047002.9,N,3.8
